Regional Weather Roundup
Issued by NWS Albany, NY

Home | Current Version | Previous Version | Text Only | Print | Product List | Glossary On
Versions: 1 2 3 4 5 6 7 8 9 10 11 12 13 14 15 16 17 18 19 20 21 22 23 24 25 26 27 28 29 30 31 32 33 34 35 36 37 38 39 40 41 42 43 44 45 46 47 48 49 50
000
ASUS41 KALY 042010
RWRALY

NEW YORK STATE HOURLY WEATHER ROUNDUP
NATIONAL WEATHER SERVICE ALBANY NY
300 PM EST WED MAR 04 2015

NOTE: "FAIR" INDICATES FEW OR NO CLOUDS BELOW 12,000 FEET WITH NO
SIGNIFICANT WEATHER AND/OR NO OBSTRUCTIONS TO VISIBILITY.

NYZ032-033-038>043-046>054-057>066-NYZ062>081-042100-
EAST


CITY           SKY/WX    TMP DP  RH WIND       PRES   REMARKS
ALBANY         CLOUDY    38  27  64 N7        29.83S WCI  33
GLENS FALLS    CLOUDY    39  24  55 W12       29.78S WCI  32
POUGHKEEPSIE   CLOUDY    43  32  65 SW9       29.80F
NEWBURGH       CLOUDY    39  34  81 W9        29.82F WCI  33
MONTGOMERY     CLOUDY    41  33  73 W9        29.83R
WHITE PLAINS   CLOUDY    43  36  76 NW7       29.81S
ISLIP          LGT RAIN  41  35  79 SW9       29.81F
NEW YORK CITY  CLOUDY    45  38  76 SW9       29.82F
CENTRAL PARK   CLOUDY    45  36  70 W6        29.85F
$$

NYZ005>009-017-018-044>046-055-056-042100-
CENTRAL


CITY           SKY/WX    TMP DP  RH WIND       PRES   REMARKS
FULTON         CLOUDY    33  21  61 W16       29.87R WCI  23
SYRACUSE       CLOUDY    31  24  75 W16       29.86R WCI  20
ROME           CLOUDY    33  23  66 W12       29.84R WCI  24
ELMIRA         CLOUDY    40  26  57 W8        29.83R WCI  34
BINGHAMTON     CLOUDY    36  27  69 NW6       29.79R WCI  31
MONTICELLO     CLOUDY    36  34  93 W6        29.83R WCI  31
$$

NYZ026>034-041>043-042100-
NORTH


CITY           SKY/WX    TMP DP  RH WIND       PRES   REMARKS
WATERTOWN      PTSUNNY   34  24  67 SW18G28   29.83R WCI  23
FORT DRUM      NOT AVBL
MASSENA        CLOUDY    36  17  46 SW18G30   29.74S WCI  26
SARANAC LAKE   CLOUDY    28  19  69 SW15G28   29.69R WCI  16
PLATTSBURGH    CLOUDY    37  21  52 SW15G23   29.72S WCI  28
$$

NYZ001>004-010>016-019>021-042100-
WEST


CITY           SKY/WX    TMP DP  RH WIND       PRES   REMARKS
NIAGARA FALLS  CLOUDY    32  21  64 W17       29.88R WCI  21
BUFFALO        CLOUDY    31  24  75 W15       29.88R WCI  20
DUNKIRK        CLOUDY    31  24  75 W12       29.91S WCI  22
JAMESTOWN      CLOUDY    28  21  74 W9        29.85S WCI  20
WELLSVILLE     CLOUDY    33  24  69 W14       29.81R WCI  23
ROCHESTER      CLOUDY    34  22  61 W20G26    29.86R WCI  23
PENN YAN       CLOUDY    37  24  59 VRB7      29.83F WCI  32
$$

             KEY
       WCI = WIND CHILL INDEX
       VSB = VISIBILITY
       HX  = HEAT INDEX
$$


USA.gov is the U.S. government's official web portal to all federal, state and local government web resources and services.